カタログに戻る

STARLINK-30298

運用中通信VLEO
NORAD 57665·PAYLOAD·🇺🇸 United States

打ち上げ Aug 22, 2023 から Vandenberg Space Force Base

Loading…

次のパス (今後24時間)

TLE

最新Source: CelesTrak SupGP

元期: Sep 15, 2026, 03:00 UTC

1 57665C 23124C   26258.12548611 -.00007352  00000+0 -21726-3 0  2589
2 57665  53.1587  44.4901 0001256  91.2882 331.4920 15.34387110    12

AllMySatでSTARLINK-30298をリアルタイム追跡

Download on the App Store